Home > Weather > Nuremberg > Past weeks

Flag for Germany Weather for the Past 2 Weeks in Nuremberg, Bavaria, Germany

Now
32 °F

Partly sunny.


Feels Like: 26 °F
Forecast: 39 / 45 °F
Wind: 7 mph from East

Location: Nuernberg

Current Time: Feb 13, 2016 at 8:22:57 AM

Latest Report: Feb 13, 2016 at 7:50 AM


Visibility: N/A

Pressure: 29.36 "Hg

Humidity: 87%

Dew point: 28 °F

Location of NurembergLocation

Historic Weather in Nuremberg — Graph

°F

Nuremberg Temperature Yesterday

Maximum temperature yesterday: 43 °F (at 2:50 PM)
Minimum temperature yesterday: 30 °F (at 9:50 PM)
Average temperature yesterday: 36 °F

High & Low Weather Summary for the Past Weeks

 TemperatureHumidityPressure
High54 °F (Feb 1, 6:50 AM)100% (Jan 31, 10:20 PM)30.42 "Hg (Jan 31, 10:20 PM)
Low28 °F (Feb 13, 2:50 AM)50% (Feb 7, 1:20 PM)29.15 "Hg (Feb 9, 6:50 PM)
Average41 °F82%29.89 "Hg
* Reported Jan 29 7:20 AM — Feb 13 7:20 AM, Nuremberg, Weather by CustomWeather, © 2016

Note: Actual official high and low records may vary slightly from our data, if they occured in-between our weather recording intervals... More about our weather records

Advertising

Nuremberg Weather History for the Previous 24 Hours

 ConditionsComfort  
Time TempWeatherWind HumidityBarometerVisibility
7:20 AM
Sat, Feb 13
32 °FPassing clouds.7 mph87%29.36 "HgN/A
6:50 AM32 °FPartly cloudy.7 mph87%29.36 "HgN/A
6:20 AM30 °FPassing clouds.7 mph86%29.36 "HgN/A
5:50 AM30 °FPassing clouds.6 mph93%29.36 "HgN/A
5:20 AM30 °FClear.7 mph93%29.36 "Hg10 mi
4:20 AM32 °FClear.7 mph87%29.36 "Hg10 mi
3:20 AM30 °FClear.7 mph86%29.36 "Hg10 mi
2:50 AM28 °FPassing clouds.7 mph93%29.36 "HgN/A
2:20 AM30 °FClear.7 mph93%29.36 "Hg10 mi
1:50 AM30 °FClear.6 mph93%29.36 "Hg10 mi
1:20 AM30 °FClear.5 mph93%29.36 "Hg10 mi
12:50 AM30 °FPassing clouds.7 mph86%29.36 "HgN/A
12:20 AM30 °FPassing clouds.6 mph93%29.36 "HgN/A
11:50 PM
Fri, Feb 12
32 °FClear.6 mph87%29.39 "Hg10 mi
11:20 PM32 °FClear.7 mph87%29.39 "Hg10 mi
10:20 PM30 °FPassing clouds.7 mph93%29.39 "HgN/A
9:50 PM30 °FPassing clouds.5 mph86%29.39 "HgN/A
9:20 PM32 °FPassing clouds.5 mph80%29.42 "HgN/A
8:50 PM32 °FClear.3 mph87%29.42 "Hg10 mi
8:20 PM32 °FClear.2 mph87%29.42 "Hg10 mi
7:50 PM32 °FClear.3 mph87%29.42 "Hg10 mi
7:20 PM34 °FPassing clouds.3 mph75%29.42 "HgN/A
6:50 PM36 °FClear.5 mph70%29.42 "Hg10 mi
6:20 PM36 °FClear.5 mph75%29.45 "Hg10 mi
5:50 PM37 °FClear.7 mph70%29.45 "Hg10 mi
5:20 PM37 °FSunny.8 mph70%29.45 "Hg10 mi
4:50 PM39 °FScattered clouds.8 mph65%29.45 "HgN/A
4:20 PM39 °FScattered clouds.9 mph65%29.45 "HgN/A
3:50 PM41 °FScattered clouds.10 mph66%29.47 "HgN/A
3:20 PM43 °FScattered clouds.8 mph61%29.47 "HgN/A
2:50 PM43 °FScattered clouds.10 mph57%29.50 "HgN/A
2:20 PM41 °FScattered clouds.8 mph66%29.50 "HgN/A
1:50 PM41 °FScattered clouds.9 mph66%29.53 "HgN/A
1:20 PM41 °FScattered clouds.7 mph61%29.53 "HgN/A
12:50 PM41 °FScattered clouds.9 mph66%29.56 "HgN/A
12:20 PM39 °FScattered clouds.8 mph70%29.59 "HgN/A
11:50 AM39 °FScattered clouds.7 mph70%29.59 "HgN/A
11:20 AM37 °FScattered clouds.3 mph81%29.62 "HgN/A
10:50 AM37 °FPassing clouds.7 mph81%29.62 "HgN/A
10:20 AM39 °FPassing clouds.6 mph70%29.62 "HgN/A
9:50 AM37 °FScattered clouds.6 mph81%29.65 "HgN/A
9:20 AM36 °FScattered clouds.6 mph93%29.65 "HgN/A
8:50 AM36 °FScattered showers. Scattered clouds.5 mph93%29.65 "HgN/A
8:20 AM34 °FLight rain. Scattered clouds.3 mph93%29.68 "HgN/A
Weather by CustomWeather, © 2016

See weather overviewHow to use our weather pages